AirNav   Everest Fuels
 
 1402 users online  

86F Carnegie Municipal Airport
Carnegie, Oklahoma, USA

GOING TO CARNEGIE?


FAA INFORMATION EFFECTIVE 21 MAY 2020

Location

FAA Identifier: 86F
Lat/Long: 35-07-25.4000N 098-34-30.9000W
35-07.423333N 098-34.515000W
35.1237222,-98.5752500
(estimated)
Elevation: 1354 ft. / 413 m (estimated)
Variation: 07E (1985)
From city: 2 miles NE of CARNEGIE, OK
Time zone: UTC -5 (UTC -6 during Standard Time)
Zip code: 73015

Airport Operations

Airport use: Open to the public
Activation date: 12/1972
Control tower: no
ARTCC: FORT WORTH CENTER
FSS: MC ALESTER FLIGHT SERVICE STATION
NOTAMs facility: MLC (NOTAM-D service available)
Attendance: UNATNDD
Wind indicator: yes
Segmented circle: no
Lights: ACTVT MIRL RY 17/35 - CTAF.

Airport Communications

CTAF: 122.9

Nearby radio navigation aids

VOR radial/distance  VOR name  Freq  Var
HBRr047/28.5HOBART VORTAC111.8010E
BFVr097/31.7BURNS FLAT VORTAC110.0005E
LAWr339/38.5LAWTON VOR/DME109.4009E

 
NDB name  Hdg/Dist  Freq  Var  ID
TRAIL329/22.238809EOFZ --- ..-. --..
POST337/32.042508EPFL .--. ..-. .-..

Airport Services

Parking: tiedowns
Airframe service: NONE
Powerplant service: NONE
Bottled oxygen: NONE
Bulk oxygen: NONE

Runway Information

Runway 17/35

Dimensions: 3000 x 60 ft. / 914 x 18 m
Surface: asphalt/concrete, in fair condition
Weight bearing capacity: 
Single wheel: 11.0
Runway edge lights: medium intensity
RUNWAY 17  RUNWAY 35
Latitude: 35-07.670003N35-07.175358N
Longitude: 098-34.512895W098-34.516102W
Elevation: 1342.0 ft.1354.0 ft.
Traffic pattern: leftleft
Runway heading: 173 magnetic, 180 true353 magnetic, 000 true
Markings: basic, in fair conditionbasic, in fair condition
Obstructions: none9 ft. tree, 365 ft. from runway, 50 ft. left of centerline, 18:1 slope to clear
RWY 35 HAS 13 FT TREE 165 FT FROM RWY END AND 65 FT R.

Airport Ownership and Management from official FAA records

Ownership: Publicly-owned
Owner: CITY OF CARNEGIE
PO BOX 1075, 11 E MAIN
CARNEGIE, OK 73015
Phone 580-654-1004
Manager: ROBERT PETTIT
30150 COUNTY STREET 2475
CARNEGIE, OK 73015
Phone (580) 574-3140

Airport Operational Statistics

Aircraft based on the field: 9
Single engine airplanes: 6
Multi engine airplanes: 1
Helicopters: 2
    
Aircraft operations: avg 42/month *
60% transient general aviation
40% local general aviation
* for 12-month period ending 12 May 2017

Additional Remarks

FOR CD CTC FORT WORTH ARTCC AT 817-858-7584.

Instrument Procedures

There are no published instrument procedures at 86F.

Some nearby airports with instrument procedures:

KHBR - Hobart Regional Airport (25 nm W)
2O8 - Hinton Municipal Airport (26 nm NE)
KOJA - Thomas P Stafford Airport (26 nm N)
KFSI - Henry Post Army Airfield (Fort Sill) (30 nm S)
KCHK - Chickasha Municipal Airport (30 nm E)
 
Loc | Ops | Rwys | IFR | FBO | Links
Com | Nav | Svcs | Stats | Notes
Area around 86F (Carnegie Municipal Airport)
 
Road maps at: MapQuest Bing Google
 
Aerial photo
WARNING: Photo may not be current or correct
Aerial photo of 86F (Carnegie Municipal Airport)
Photo taken 12-Nov-2005
looking North just before sunset

Do you have a better or more recent aerial photo of Carnegie Municipal Airport that you would like to share? If so, please send us your photo.

 
Sectional chart

 
Airport distance calculator
Flying to Carnegie Municipal Airport? Find the distance to fly.

From to 86F

Sunrise and sunset
Times for 02-Jun-2020
 Local
(UTC-5)
 Zulu
(UTC)
Morning civil twilight05:5210:52
Sunrise06:2211:22
Sunset20:4301:43
Evening civil twilight21:1302:13

Current date and time
Zulu (UTC)  02-Jun-2020 16:55:06
Local (UTC-5)  02-Jun-2020 11:55:06
 
METAR
KHBR 
25nm W 
021605Z AUTO 21013KT 10SM FEW026 SCT037 28/19 A3007 RMK AO2 T02780194
KOJA 
26nm N 
021635Z AUTO 22010KT 10SM CLR 27/20 A3006 RMK AO2
KCHK 
30nm E 
021630Z AUTO 20011G17KT 10SM SCT030 29/20 A3004 RMK AO2 T02880197
KCLK 
30nm NW 
021635Z AUTO 20008KT 10SM CLR 28/18 A3006 RMK AO2
KFSI 
31nm S 
021556Z AUTO 21007KT 10SM SCT028 27/21 A3006 RMK AO2 SLP171 T02690205 $
KCSM 
33nm NW 
021553Z 21014KT 10SM CLR 27/18 A3007 RMK AO2 SLP160 T02670183
KRQO 
35nm NE 
021635Z AUTO 20016KT 10SM SCT027 28/20 A3008 RMK AO2
KLAW 
35nm S 
021553Z 22006KT 10SM SCT033 SCT042 28/19 A3007 RMK AO2 SLP169 T02780189
KRCE 
43nm NE 
021615Z AUTO 22011G18KT 10SM 27/20 A3006 RMK AO2
KLTS 
44nm SW 
021556Z AUTO 21010KT 10SM BKN030 BKN039 28/19 A3005 RMK AO2 SLP161 T02750190 $
TAF
KFSI 
31nm S 
021300Z 0213/0319 19012KT 9999 BKN050 QNH3005INS BECMG 0307/0308 17006KT 8000 BR BKN030 QNH3002INS BECMG 0314/0315 20009KT 9999 NSW FEW020 QNH2992INS TX31/0219Z TN19/0213Z
NOTAMs
Click for the latest NOTAMs
NOTAMs are issued by the DoD/FAA and will open in a separate window not controlled by AirNav.

 

 
 

Would you like to see your business listed on this page?

 If your business provides an interesting product or service to pilots, flight crews, aircraft, or users of the Carnegie Municipal Airport, you should consider listing it here.  To start the listing process, click on the button below
 
Add a business
 

Other Pages about Carnegie Municipal Airport

Update a link
 
Copyright © AirNav, LLC. All rights reserved. Privacy Policy  Contact